{"data":{"norad_id":69618,"epoch":"2026-09-19T16:59:06.648576Z","epoch_age_seconds":97354,"freshness":"FRESH","line1":"1 69618U 26140AC  26262.70771584  .00018960  00000+0  50013-3 0  9995","line2":"2 69618  51.8785 301.0146 0010979 146.8724 213.2953 15.38458258 15784","mean_motion":15.38458258,"eccentricity":0.0010979,"inclination_deg":51.8785,"raan_deg":301.0146,"arg_perigee_deg":146.8724,"mean_anomaly_deg":213.2953,"bstar":0.00050013,"rev_number":1578,"period_min":93.600199583706,"perigee_km":443.17042023785,"apogee_km":458.16510974081,"semimajor_km":6828.8047649893,"source":"CELESTRAK","updated_at":"2026-09-20T09:00:25.006090Z"}}